星链-36963(STARLINK-36963)

导读

STARLINK-36963(NORAD编号68235)是美国太空探索技术公司(SpaceX)旗下星链(Starlink)项目的低轨互联网通信卫星,采用Starlink V1.0平台,所属星链项目旨在为全球尤其是偏远地区提供高速低延迟互联网服务,缩小全球数字鸿沟。该卫星服务覆盖全球,由SpaceX自主研发制造,当前处于在轨运行状态,可为普通民用网络接入以及军事、航空等领域提供通信支持,是SpaceX大规模低轨卫星星座组网建设的组成部分。

Basic Information
目录编号:
68235
目录名称:
STARLINK-36963
国际标识:
2026-054D
轨道中心:
EARTH
卫星名称:
星链-36963
卫星全名:
星链-36963(STARLINK-36963)
卫星状态:
在轨 (已飞行133 天)
发射日期:
2026-03-17 UTC
国别 :
美国 (US)
星等 :
--
Orbit Information
数据来源 国际轨道数据 AOE轨道数据
星历时间 2026-07-27T18:28:37+0800
15小时前
查看轨道信息
2026-07-23T01:00:00+0800
5天前
查看轨道信息
半长轴 6840.88km 6840.898km
偏心率 0.0001435 0.0000783
轨道倾角 53.160° 53.160°
近地点辐角 73.819° 152.773°
升交点赤经 359.470° 21.575°
平近点角 286.297° 355.042°
近地点 461.761km 462.225km
远地点 463.725km 463.297km
周期 93.849分钟 93.849分钟
每日圈数 15.343867 15.343809
Detailed Information
固有亮度:
5
最大亮度:
2.5
卫星平台:
Starlink V1.0
覆盖范围:
全球
运营商:
太空探索技术公司
运营商所在国:
美国
制造商(研发单位):
太空探索技术公司
制造商所在国:
美国
使用方式:
暂无
Satellite Introduction
Starlink 计划是 SpaceX 推出的全球卫星互联网项目,通过发射低轨道卫星,为全球尤其是偏远地区提供高速、低延迟的互联网服务。自 2019 年起,Starlink 已部署数千颗卫星,旨在缩小全球数字鸿沟,推动互联网普及。该项目还为军事、航空等行业提供通信支持,带来广泛经济效益。
2D Orbit Map
3D Orbit Map
Orbit Altitude Analysis Chart
Orbit Inclination Analysis Chart
Orbit Comprehensive Analysis Chart
View Comprehensive Chart